When you browse on this site, cookies collect data to enhance your experience and personalize the content and advertising you see.
Visit our Privacy Policy to learn more. By continuing to use the site, you agree to this use of cookies and data.
  • en France
  • Liste des pays
  • À 7 jours
  • Température de l'eau
  • Carte satellitaire
  • Carte météo
  • Widgets météo
  • user-avatar
    Se connecter

    Météo par heure à Bassé Santa Su

    Ce jour, 25 Mai, Samedi

    Heure Température Précipitation Vent Pression Humidité
    00:00 +36°C° 0 mm 4 m/s 755 mmHg 31%
    01:00 +34°C° 0 mm 4 m/s 755 mmHg 39%
    02:00 +32°C° 0 mm 4 m/s 755 mmHg 47%
    03:00 +32°C° 0 mm 4 m/s 755 mmHg 47%
    04:00 +31°C° 0 mm 3 m/s 756 mmHg 47%
    05:00 +31°C° 0 mm 2 m/s 756 mmHg 47%
    06:00 +32°C° 0 mm 2 m/s 756 mmHg 44%
    07:00 +32°C° 0 mm 2 m/s 757 mmHg 41%
    08:00 +34°C° 0 mm 2 m/s 757 mmHg 38%
    09:00 +36°C° 0 mm 1 m/s 757 mmHg 33%
    10:00 +39°C° 0 mm 1 m/s 757 mmHg 27%
    11:00 +42°C° 0 mm 1 m/s 756 mmHg 22%
    12:00 +43°C° 0 mm 1 m/s 755 mmHg 20%
    13:00 +45°C° 0 mm 1 m/s 755 mmHg 18%
    14:00 +46°C° 0 mm 1 m/s 754 mmHg 17%
    15:00 +45°C° 0 mm 1 m/s 754 mmHg 17%
    16:00 +45°C° 0 mm 1 m/s 753 mmHg 18%
    17:00 +44°C° 0 mm 1 m/s 753 mmHg 19%
    18:00 +43°C° 0 mm 1 m/s 753 mmHg 20%
    19:00 +42°C° 0 mm 1 m/s 754 mmHg 21%
    20:00 +41°C° 0 mm 1 m/s 754 mmHg 22%
    21:00 +39°C° 0 mm 3 m/s 755 mmHg 27%
    22:00 +37°C° 0 mm 4 m/s 756 mmHg 32%
    23:00 +35°C° 0 mm 6 m/s 756 mmHg 36%

    Demain, 26 Mai, Dimanche

    Heure Température Précipitation Vent Pression Humidité
    00:00 +34°C° 0 mm 5 m/s 757 mmHg 39%
    01:00 +33°C° 0 mm 5 m/s 757 mmHg 42%
    02:00 +32°C° 0 mm 4 m/s 757 mmHg 45%
    03:00 +32°C° 0 mm 4 m/s 757 mmHg 49%
    04:00 +30°C° 0 mm 4 m/s 757 mmHg 53%
    05:00 +30°C° 0 mm 3 m/s 757 mmHg 58%
    06:00 +30°C° 0 mm 3 m/s 757 mmHg 57%
    07:00 +31°C° 0 mm 3 m/s 758 mmHg 56%
    08:00 +31°C° 0 mm 3 m/s 758 mmHg 55%
    09:00 +34°C° 0 mm 3 m/s 758 mmHg 49%
    10:00 +36°C° 0 mm 3 m/s 757 mmHg 44%
    11:00 +37°C° 0 mm 3 m/s 757 mmHg 39%
    12:00 +40°C° 0 mm 2 m/s 756 mmHg 32%
    13:00 +42°C° 0 mm 2 m/s 756 mmHg 26%
    14:00 +44°C° 0 mm 1 m/s 755 mmHg 20%
    15:00 +44°C° 0 mm 1 m/s 755 mmHg 20%
    16:00 +43°C° 0 mm 1 m/s 754 mmHg 21%
    17:00 +42°C° 0 mm 1 m/s 754 mmHg 21%
    18:00 +41°C° 0 mm 2 m/s 754 mmHg 24%
    19:00 +40°C° 0 mm 2 m/s 755 mmHg 27%
    20:00 +39°C° 0 mm 3 m/s 755 mmHg 30%
    21:00 +37°C° 0 mm 4 m/s 756 mmHg 36%
    22:00 +36°C° 0 mm 4 m/s 756 mmHg 41%
    23:00 +34°C° 0 mm 4 m/s 757 mmHg 46%

    Après-demain, 27 Mai, Lundi

    Heure Température Précipitation Vent Pression Humidité
    00:00 +33°C° 0 mm 4 m/s 757 mmHg 43%
    01:00 +33°C° 0 mm 3 m/s 757 mmHg 40%
    02:00 +31°C° 0 mm 3 m/s 757 mmHg 37%
    03:00 +31°C° 0 mm 2 m/s 757 mmHg 39%
    04:00 +30°C° 0 mm 2 m/s 757 mmHg 41%
    05:00 +29°C° 0 mm 2 m/s 757 mmHg 42%
    06:00 +30°C° 0 mm 2 m/s 757 mmHg 40%
    07:00 +31°C° 0 mm 2 m/s 757 mmHg 37%
    08:00 +32°C° 0 mm 2 m/s 758 mmHg 34%
    09:00 +35°C° 0 mm 2 m/s 757 mmHg 30%
    10:00 +38°C° 0 mm 2 m/s 757 mmHg 26%
    11:00 +40°C° 0 mm 2 m/s 757 mmHg 22%
    12:00 +41°C° 0 mm 2 m/s 756 mmHg 20%
    13:00 +42°C° 0 mm 2 m/s 755 mmHg 19%
    14:00 +43°C° 0 mm 2 m/s 754 mmHg 17%
    15:00 +43°C° 0 mm 2 m/s 754 mmHg 17%
    16:00 +42°C° 0 mm 2 m/s 754 mmHg 17%
    17:00 +42°C° 0 mm 2 m/s 753 mmHg 17%
    18:00 +41°C° 0 mm 2 m/s 754 mmHg 18%
    19:00 +40°C° 0 mm 2 m/s 755 mmHg 19%
    20:00 +39°C° 0 mm 2 m/s 755 mmHg 20%
    21:00 +38°C° 0 mm 3 m/s 756 mmHg 22%
    22:00 +37°C° 0 mm 3 m/s 756 mmHg 25%
    23:00 +36°C° 0 mm 3 m/s 756 mmHg 27%

    28 Mai, Mardi

    Heure Température Précipitation Vent Pression Humidité
    00:00 +35°C° 0 mm 3 m/s 756 mmHg 29%
    01:00 +34°C° 0 mm 3 m/s 756 mmHg 31%
    02:00 +33°C° 0 mm 3 m/s 755 mmHg 33%
    03:00 +31°C° 0 mm 3 m/s 755 mmHg 35%
    04:00 +30°C° 0 mm 2 m/s 756 mmHg 36%
    05:00 +29°C° 0 mm 2 m/s 756 mmHg 37%
    06:00 +30°C° 0 mm 2 m/s 756 mmHg 34%
    07:00 +31°C° 0 mm 2 m/s 757 mmHg 32%
    08:00 +32°C° 0 mm 2 m/s 757 mmHg 29%
    09:00 +36°C° 0 mm 2 m/s 757 mmHg 25%
    10:00 +38°C° 0 mm 2 m/s 757 mmHg 21%
    11:00 +41°C° 0 mm 2 m/s 757 mmHg 16%
    12:00 +42°C° 0 mm 2 m/s 756 mmHg 16%
    13:00 +43°C° 0 mm 2 m/s 755 mmHg 15%
    14:00 +45°C° 0 mm 2 m/s 754 mmHg 14%
    15:00 +45°C° 0 mm 2 m/s 753 mmHg 14%
    16:00 +45°C° 0 mm 2 m/s 753 mmHg 14%
    17:00 +43°C° 0 mm 2 m/s 753 mmHg 15%
    18:00 +42°C° 0 mm 2 m/s 754 mmHg 16%
    19:00 +41°C° 0 mm 2 m/s 754 mmHg 17%
    20:00 +39°C° 0 mm 1 m/s 755 mmHg 19%
    21:00 +38°C° 0 mm 2 m/s 755 mmHg 19%
    22:00 +38°C° 0 mm 3 m/s 756 mmHg 20%
    23:00 +37°C° 0 mm 4 m/s 756 mmHg 20%

    29 Mai, Mercredi

    Heure Température Précipitation Vent Pression Humidité
    00:00 +36°C° 0 mm 4 m/s 756 mmHg 21%
    01:00 +34°C° 0 mm 3 m/s 756 mmHg 22%
    02:00 +32°C° 0 mm 2 m/s 755 mmHg 23%
    03:00 +31°C° 0 mm 2 m/s 755 mmHg 24%
    04:00 +30°C° 0 mm 2 m/s 756 mmHg 25%
    05:00 +30°C° 0 mm 2 m/s 756 mmHg 26%
    06:00 +31°C° 0 mm 2 m/s 756 mmHg 24%
    07:00 +32°C° 0 mm 2 m/s 756 mmHg 22%
    08:00 +34°C° 0 mm 2 m/s 757 mmHg 21%
    09:00 +36°C° 0 mm 3 m/s 757 mmHg 18%
    10:00 +39°C° 0 mm 3 m/s 756 mmHg 14%
    11:00 +42°C° 0 mm 3 m/s 756 mmHg 11%
    12:00 +44°C° 0 mm 3 m/s 755 mmHg 10%
    13:00 +45°C° 0 mm 3 m/s 754 mmHg 10%
    14:00 +46°C° 0 mm 3 m/s 753 mmHg 10%
    15:00 +46°C° 0 mm 3 m/s 752 mmHg 10%
    16:00 +46°C° 0 mm 3 m/s 752 mmHg 10%
    17:00 +46°C° 0 mm 3 m/s 752 mmHg 10%
    18:00 +43°C° 0 mm 2 m/s 752 mmHg 11%
    19:00 +41°C° 0 mm 2 m/s 753 mmHg 12%
    20:00 +40°C° 0 mm 1 m/s 754 mmHg 13%
    21:00 +39°C° 0 mm 2 m/s 754 mmHg 14%
    22:00 +38°C° 0 mm 2 m/s 754 mmHg 14%
    23:00 +38°C° 0 mm 2 m/s 754 mmHg 15%

    30 Mai, Jeudi

    Heure Température Précipitation Vent Pression Humidité
    00:00 +36°C° 0 mm 2 m/s 754 mmHg 15%
    01:00 +35°C° 0 mm 2 m/s 753 mmHg 15%
    02:00 +34°C° 0 mm 2 m/s 753 mmHg 15%
    03:00 +32°C° 0 mm 2 m/s 753 mmHg 17%
    04:00 +31°C° 0 mm 1 m/s 754 mmHg 18%
    05:00 +30°C° 0 mm 1 m/s 754 mmHg 19%
    06:00 +32°C° 0 mm 1 m/s 754 mmHg 18%
    07:00 +33°C° 0 mm 1 m/s 755 mmHg 17%
    08:00 +35°C° 0 mm 1 m/s 755 mmHg 15%
    09:00 +37°C° 0 mm 1 m/s 755 mmHg 13%
    10:00 +41°C° 0 mm 2 m/s 754 mmHg 11%
    11:00 +43°C° 0 mm 2 m/s 754 mmHg 9%
    12:00 +46°C° 0 mm 3 m/s 753 mmHg 9%
    13:00 +47°C° 0 mm 3 m/s 752 mmHg 8%
    14:00 +48°C° 0 mm 3 m/s 751 mmHg 8%
    15:00 +48°C° 0 mm 3 m/s 751 mmHg 8%
    16:00 +48°C° 0 mm 2 m/s 750 mmHg 8%
    17:00 +48°C° 0 mm 2 m/s 750 mmHg 8%
    18:00 +46°C° 0 mm 2 m/s 751 mmHg 9%
    19:00 +43°C° 0 mm 2 m/s 751 mmHg 10%
    20:00 +41°C° 0 mm 1 m/s 752 mmHg 11%
    21:00 +38°C° 0 mm 3 m/s 752 mmHg 23%
    22:00 +35°C° 0 mm 4 m/s 753 mmHg 35%
    23:00 +33°C° 0 mm 6 m/s 753 mmHg 46%
    Voir plus